TimeMST,TemperatureF,Dew PointF,Humidity,Sea Level PressureIn,VisibilityMPH,Wind Direction,Wind SpeedMPH,Gust SpeedMPH,PrecipitationIn,Events,Conditions,WindDirDegrees,DateUTC
12:08 AM,33.8,33.8,100,29.67,2.0,South,6.9,-,0.02,Snow,Light Snow,190,2012-11-09 07:08:00
12:15 AM,33.8,33.8,100,29.66,1.5,South,4.6,-,0.03,Snow,Light Snow,190,2012-11-09 07:15:00
12:24 AM,33.8,32.0,93,29.65,1.2,South,4.6,-,0.05,Snow,Light Snow,170,2012-11-09 07:24:00
12:43 AM,32.0,32.0,100,29.66,1.8,SSE,5.8,-,0.09,Snow,Light Snow,160,2012-11-09 07:43:00
12:53 AM,32.0,32.0,100,29.65,1.5,SSE,4.6,-,0.11,Snow,Light Snow,150,2012-11-09 07:53:00
1:01 AM,32.0,32.0,100,29.66,2.0,SSE,4.6,-,0.01,Snow,Light Snow,160,2012-11-09 08:01:00
1:30 AM,32.0,32.0,100,29.65,1.5,SSE,4.6,-,0.03,Snow,Light Snow,160,2012-11-09 08:30:00
1:36 AM,32.0,32.0,100,29.64,2.0,South,4.6,-,0.04,Snow,Light Snow,170,2012-11-09 08:36:00
1:53 AM,32.0,32.0,100,29.64,2.0,South,8.1,-,0.05,Snow,Light Snow,180,2012-11-09 08:53:00
2:53 AM,34.0,33.1,96,29.64,6.0,SSW,10.4,-,0.02,Snow,Light Snow,200,2012-11-09 09:53:00
3:17 AM,33.8,33.8,100,29.66,10.0,SSW,9.2,-,0.00,,Overcast,200,2012-11-09 10:17:00
3:53 AM,34.0,33.1,96,29.63,10.0,SSW,5.8,-,0.00,Rain,Light Rain,210,2012-11-09 10:53:00
4:33 AM,33.8,33.8,100,29.66,10.0,SW,4.6,-,0.00,,Overcast,230,2012-11-09 11:33:00
4:53 AM,34.0,32.0,92,29.64,10.0,WSW,5.8,-,0.00,,Overcast,250,2012-11-09 11:53:00
5:53 AM,35.1,33.1,92,29.65,10.0,West,3.5,-,N/A,,Overcast,260,2012-11-09 12:53:00
6:53 AM,36.0,33.1,89,29.66,10.0,WNW,6.9,-,N/A,,Overcast,290,2012-11-09 13:53:00
7:53 AM,34.0,33.1,96,29.68,10.0,West,9.2,-,N/A,,Overcast,280,2012-11-09 14:53:00
8:48 AM,35.6,33.8,93,29.71,10.0,West,6.9,-,N/A,,Overcast,270,2012-11-09 15:48:00
8:53 AM,35.1,32.0,89,29.70,10.0,West,8.1,-,N/A,,Overcast,270,2012-11-09 15:53:00
9:53 AM,35.1,30.0,82,29.73,10.0,West,10.4,-,0.00,,Overcast,270,2012-11-09 16:53:00
10:34 AM,35.6,30.2,81,29.72,10.0,West,10.4,19.6,0.00,,Overcast,260,2012-11-09 17:34:00
10:53 AM,35.1,30.0,82,29.74,10.0,WSW,11.5,-,0.00,Rain,Light Rain,250,2012-11-09 17:53:00
11:53 AM,35.1,30.0,82,29.74,10.0,West,8.1,-,0.00,,Overcast,270,2012-11-09 18:53:00
12:51 PM,35.6,28.4,75,29.69,10.0,West,8.1,-,0.00,,Overcast,280,2012-11-09 19:51:00
12:53 PM,37.0,28.9,73,29.71,10.0,West,8.1,-,0.00,,Overcast,280,2012-11-09 19:53:00
1:13 PM,35.6,28.4,75,29.68,10.0,West,6.9,-,N/A,,Overcast,270,2012-11-09 20:13:00
1:45 PM,37.4,26.6,65,29.67,10.0,West,8.1,-,N/A,,Mostly Cloudy,270,2012-11-09 20:45:00
1:53 PM,37.0,27.0,67,29.69,10.0,West,6.9,-,N/A,,Mostly Cloudy,280,2012-11-09 20:53:00
2:53 PM,37.9,27.0,65,29.69,10.0,West,8.1,-,N/A,,Mostly Cloudy,270,2012-11-09 21:53:00
3:53 PM,37.0,26.1,65,29.68,10.0,West,6.9,-,N/A,,Overcast,270,2012-11-09 22:53:00
4:53 PM,36.0,26.1,67,29.70,10.0,West,6.9,-,N/A,,Partly Cloudy,270,2012-11-09 23:53:00
5:53 PM,33.1,26.1,75,29.71,10.0,West,8.1,-,N/A,,Clear,260,2012-11-10 00:53:00
6:53 PM,32.0,27.0,82,29.71,10.0,SW,6.9,-,N/A,,Clear,220,2012-11-10 01:53:00
7:53 PM,30.9,28.0,89,29.72,10.0,West,10.4,-,0.00,,Scattered Clouds,260,2012-11-10 02:53:00
8:37 PM,30.2,26.6,86,29.70,10.0,WSW,8.1,-,0.00,,Scattered Clouds,240,2012-11-10 03:37:00
8:53 PM,30.9,27.0,85,29.73,10.0,WSW,6.9,-,0.00,,Clear,250,2012-11-10 03:53:00
9:53 PM,28.9,26.1,89,29.75,10.0,WSW,10.4,-,N/A,,Partly Cloudy,250,2012-11-10 04:53:00
10:53 PM,30.0,26.1,85,29.73,10.0,WSW,11.5,-,0.00,,Clear,250,2012-11-10 05:53:00
11:53 PM,28.9,25.0,85,29.73,10.0,WSW,10.4,-,0.00,,Clear,250,2012-11-10 06:53:00